CW3066 Weather Reports


time (UTC)temp
F
wind
direction
speed
knots
gust
knots
rain 1hr
in
rain 24hr
in
rain mn
in
humidity
%
barometer
mb
20260906051534 76 331 0.0 0.0 0.00 0.41 0.00 77 1006.5
20260906050037 76 331 0.0 0.0 0.00 0.41 0.00 77 1006.5
20260906044529 76 331 0.0 0.0 0.00 0.41 0.00 76 1006.5
20260906043027 76 331 0.0 0.0 0.00 0.41 0.41 76 1006.5
20260906041527 76 331 0.0 0.0 0.00 0.41 0.41 76 1006.2
20260906040033 77 331 0.0 0.0 0.00 0.41 0.41 77 1006.1
20260906034526 77 331 0.0 0.0 0.00 0.41 0.41 75 1006.0
20260906033025 77 331 0.0 0.0 0.00 0.41 0.41 73 1006.1
20260906031555 77 331 0.0 0.0 0.00 0.41 0.41 73 1006.0
20260906030024 77 331 0.0 0.0 0.00 0.41 0.41 73 1005.7
20260906024549 78 331 0.0 0.0 0.00 0.41 0.41 72 1005.6
20260906023025 78 331 0.0 0.0 0.00 0.41 0.41 70 1005.6
20260906021523 79 331 0.0 0.0 0.00 0.41 0.41 68 1005.5
20260906020022 79 331 0.0 0.0 0.00 0.41 0.41 66 1005.6
20260906014522 80 331 0.0 0.0 0.00 0.41 0.41 64 1005.7
20260906013022 80 331 0.0 0.0 0.00 0.41 0.41 63 1005.5
20260906011521 81 331 0.0 0.0 0.00 0.41 0.41 62 1005.3
20260906010039 82 331 0.0 0.0 0.00 0.41 0.41 61 1005.1
20260906004521 82 331 0.0 0.0 0.00 0.41 0.41 60 1005.4
20260906003020 83 331 0.0 0.0 0.00 0.41 0.41 58 1005.1
20260906001524 84 331 0.0 0.0 0.00 0.41 0.41 56 1005.0
20260906000021 86 331 0.0 0.9 0.00 0.41 0.41 54 1005.4
20260905234518 88 338 0.0 1.7 0.00 0.41 0.41 52 1005.4
20260905233017 89 355 0.0 2.6 0.00 0.41 0.41 49 1005.5
20260905231517 89 355 0.0 1.7 0.00 0.41 0.41 47 1005.4
20260905230030 90 355 0.0 1.7 0.00 0.41 0.41 46 1005.4
20260905224519 91 355 0.0 0.0 0.00 0.41 0.41 45 1005.4
20260905223017 92 355 0.0 1.7 0.00 0.41 0.41 44 1005.4
20260905221515 92 355 0.0 1.7 0.00 0.41 0.41 44 1005.4
20260905220016 93 355 0.0 3.5 0.00 0.41 0.41 41 1005.4
20260905214514 93 355 0.0 2.6 0.00 0.41 0.41 41 1005.3
20260905213013 93 355 0.0 1.7 0.00 0.41 0.41 42 1005.2
20260905211529 93 355 0.0 2.6 0.00 0.41 0.41 40 1005.0
20260905210012 94 355 0.0 0.9 0.00 0.41 0.41 40 1005.1
20260905204510 93 351 0.0 2.6 0.00 0.41 0.41 41 1005.2
20260905203009 93 350 0.0 3.5 0.00 0.41 0.41 42 1005.6
20260905201509 93 349 0.0 0.9 0.00 0.41 0.41 41 1005.9
20260905200009 92 350 0.0 2.6 0.00 0.41 0.41 40 1006.0
20260905194505 92 350 0.0 2.6 0.00 0.41 0.41 41 1006.3
20260905193004 92 355 0.0 0.9 0.00 0.41 0.41 44 1006.3
20260905191502 91 351 0.0 1.7 0.00 0.41 0.41 43 1006.5
20260905190003 91 351 0.0 0.9 0.00 0.41 0.41 44 1006.8
20260905184500 91 351 0.0 1.7 0.00 0.41 0.41 46 1006.9
20260905183100 91 351 0.0 0.9 0.00 0.41 0.41 48 1007.0
20260905181559 91 351 0.0 1.7 0.00 0.41 0.41 47 1007.4
20260905180103 89 350 0.0 3.5 0.00 0.41 0.41 47 1007.5
20260905174556 89 350 0.0 4.3 0.00 0.41 0.41 50 1007.5
20260905173102 88 350 0.0 3.5 0.00 0.41 0.41 50 1007.7
20260905171550 87 350 0.0 1.7 0.00 0.41 0.41 53 1007.9
20260905170047 86 348 0.0 0.9 0.00 0.41 0.41 53 1007.6
20260905164545 85 350 0.0 2.6 0.00 0.41 0.41 57 1007.7
20260905163043 84 350 0.0 1.7 0.00 0.41 0.41 59 1007.9
20260905161540 83 350 0.0 2.6 0.00 0.41 0.41 61 1007.9
20260905160039 82 347 0.0 1.7 0.00 0.41 0.41 66 1008.1
20260905154537 81 350 0.0 0.0 0.00 0.41 0.41 68 1008.2
20260905153032 79 350 0.0 0.0 0.00 0.41 0.41 74 1008.4
20260905151531 78 350 0.0 0.9 0.00 0.41 0.41 78 1008.5
20260905150030 76 350 0.0 2.6 0.00 0.41 0.41 82 1008.6
20260905144530 74 328 0.0 0.0 0.00 0.41 0.41 88 1008.6
20260905143033 73 328 0.0 1.7 0.00 0.41 0.41 93 1009.0
20260905141530 72 355 0.0 2.6 0.00 0.41 0.41 95 1008.8
20260905140031 71 355 0.0 1.7 0.00 0.41 0.41 96 1009.0
20260905134534 70 355 0.0 2.6 0.01 0.41 0.41 96 1009.0
20260905133027 70 351 0.0 3.5 0.01 0.41 0.41 96 1009.4
20260905131527 70 355 0.0 2.6 0.01 0.41 0.41 96 1009.3
20260905130026 70 355 0.0 4.3 0.02 0.41 0.41 95 1009.6
20260905124534 70 343 0.0 4.3 0.30 0.40 0.40 94 1009.0
20260905123023 70 345 0.0 6.1 0.40 0.40 0.40 94 1008.9
20260905121522 71 351 0.0 0.9 0.40 0.40 0.40 93 1008.4
20260905120020 71 340 0.0 3.5 0.39 0.39 0.39 91 1008.9
20260905114518 73 277 0.9 5.2 0.09 0.09 0.09 81 1008.7
20260905113019 76 355 0.9 5.2 0.00 0.00 0.00 75 1008.4
20260905111516 76 355 0.0 4.3 0.00 0.00 0.00 81 1008.1
20260905110012 74 319 1.7 6.1 0.00 0.00 0.00 94 1006.8
20260905104511 74 355 0.0 0.0 0.00 0.00 0.00 96 1006.7
20260905103010 74 355 0.0 0.0 0.00 0.00 0.00 95 1006.7
20260905101521 73 355 0.0 0.0 0.00 0.00 0.00 95 1006.8
20260905100008 74 355 0.0 0.0 0.00 0.00 0.00 95 1006.8
20260905094507 74 355 0.0 0.0 0.00 0.00 0.00 95 1006.7
20260905093006 74 355 0.0 0.0 0.00 0.00 0.00 95 1006.7
20260905091509 74 355 0.0 0.0 0.00 0.00 0.00 94 1006.7
20260905090004 74 355 0.0 0.0 0.00 0.00 0.00 94 1006.7
20260905084503 74 355 0.0 0.0 0.00 0.00 0.00 93 1006.5
20260905083002 74 355 0.0 0.0 0.00 0.00 0.00 93 1006.4
20260905081502 74 355 0.0 0.0 0.00 0.00 0.00 93 1006.6
20260905080106 75 355 0.0 0.0 0.00 0.00 0.00 92 1006.6
20260905074559 75 355 0.0 0.0 0.00 0.00 0.00 91 1006.8
20260905073057 75 355 0.0 0.0 0.00 0.00 0.00 91 1006.9
20260905071556 75 355 0.0 0.0 0.00 0.00 0.00 90 1007.1
20260905070106 75 355 0.0 0.0 0.00 0.00 0.00 90 1007.3
20260905064554 76 355 0.0 0.0 0.00 0.00 0.00 89 1007.4
20260905063057 76 355 0.0 0.0 0.00 0.00 0.00 88 1007.7
20260905061551 76 355 0.0 0.0 0.00 0.00 0.00 87 1007.9
20260905060049 76 355 0.0 0.0 0.00 0.00 0.00 86 1007.9
20260905054554 77 355 0.0 0.0 0.00 0.00 0.00 86 1007.9
20260905053046 77 355 0.0 0.0 0.00 0.00 0.00 85 1008.0